Winona, MN

6:27 PM CST on December 07, 2019 (GMT -0600)
Winona Municipal-Conrad

Weather History for KONA - November, 2019

Change the Weather History Date:

Saturday, November 16, 2019

  Actual Average Record
Temperature  
Mean Temperature 36 °F -  
Max Temperature 42 °F 41 °F 62 °F (2001)
Min Temperature 30 °F 25 °F 14 °F (1997)
Degree Days  
Heating Degree Days 29    
Moisture  
Dew Point 29 °F    
Average Humidity 75    
Maximum Humidity 87    
Minimum Humidity 61    
Precipitation  
Precipitation 0.00 in - - ()
Sea Level Pressure  
Sea Level Pressure 30.22 in    
Wind  
Wind Speed 5 mph (SSE)    
Max Wind Speed 12 mph    
Max Gust Speed 18 mph    
Visibility 10 miles    
Events      
Averages and records for this station are not official NWS values.
T = Trace of Precipitation, MM = Missing Value Source: NWS Daily Summary

Daily Weather History Graph

Daily Weather History Graph

Search for Another Location

Airport or City:

Astronomy

Nov. 16, 2019 Rise Set
Actual Time 7:03 AM CST 4:39 PM CST
Civil Twilight 6:31 AM CST 5:10 PM CST
Nautical Twilight 5:56 AM CST 5:45 PM CST
Astronomical Twilight 5:22 AM CST 6:20 PM CST
Moon 8:08 PM CST (11/16) 11:01 AM CST (11/16)
Length of Visible Light 10h 39m
Length of Day
9h 36m
Waning Gibbous, 82% of the Moon is Illuminated
Nov 16
Waning Gibbous
Nov 19
Last Quarter
Nov 26
New
Dec 4
First Quarter
Dec 11
Full

Hourly Weather History & Observations

Time (CST) Temp. Windchill Dew Point Humidity Pressure Visibility Wind Dir Wind Speed Gust Speed Precip Events Conditions
12:15 AM 30.2 °F - 26.6 °F 86% 30.37 in 10.0 mi Calm Calm - N/A   Clear
12:16 AM 30.2 °F - 26.6 °F 86% 30.37 in 10.0 mi Calm Calm - N/A   Clear
12:35 AM 30.2 °F - 26.6 °F 86% 30.36 in 10.0 mi Calm Calm - N/A   Clear
12:36 AM 30.2 °F - 26.6 °F 86% 30.36 in 10.0 mi Calm Calm - N/A   Clear
12:55 AM 30.2 °F - 26.6 °F 86% 30.36 in 10.0 mi Calm Calm - N/A   Clear
12:56 AM 30.2 °F - 26.6 °F 86% 30.36 in 10.0 mi Calm Calm - N/A   Clear
1:15 AM 30.2 °F - 26.6 °F 86% 30.36 in 10.0 mi Calm Calm - N/A   Clear
1:16 AM 30.2 °F - 26.6 °F 86% 30.36 in 10.0 mi Calm Calm - N/A   Clear
1:35 AM 30.2 °F - 26.6 °F 86% 30.35 in 10.0 mi Calm Calm - N/A   Clear
1:55 AM 30.2 °F - 26.6 °F 86% 30.35 in 10.0 mi Calm Calm - N/A   Clear
2:15 AM 30.2 °F - 26.6 °F 86% 30.35 in 10.0 mi Calm Calm - N/A   Clear
2:16 AM 30.2 °F - 26.6 °F 86% 30.35 in 10.0 mi Calm Calm - N/A   Clear
2:35 AM 32.0 °F - 26.6 °F 80% 30.35 in 10.0 mi Calm Calm - N/A   Clear
2:55 AM 32.0 °F - 26.6 °F 80% 30.34 in 10.0 mi Calm Calm - N/A   Clear
3:15 AM 32.0 °F - 28.4 °F 87% 30.34 in 10.0 mi Calm Calm - N/A   Clear
3:35 AM 32.0 °F - 28.4 °F 87% 30.34 in 10.0 mi Calm Calm - N/A   Clear
3:55 AM 32.0 °F 28.7 °F 28.4 °F 87% 30.34 in 10.0 mi SSE 3.5 mph - N/A   Clear
4:15 AM 33.8 °F 28.6 °F 30.2 °F 87% 30.34 in 10.0 mi SE 5.8 mph - N/A   Clear
4:35 AM 33.8 °F 27.7 °F 30.2 °F 87% 30.33 in 10.0 mi SE 6.9 mph - N/A   Clear
4:55 AM 33.8 °F 27.7 °F 30.2 °F 87% 30.33 in 10.0 mi SE 6.9 mph - N/A   Clear
5:15 AM 33.8 °F 26.4 °F 30.2 °F 87% 30.33 in 10.0 mi SE 9.2 mph - N/A   Clear
5:35 AM 33.8 °F 27.0 °F 30.2 °F 87% 30.33 in 10.0 mi SE 8.1 mph - N/A   Clear
5:55 AM 33.8 °F 27.7 °F 28.4 °F 81% 30.33 in 10.0 mi SE 6.9 mph - N/A   Clear
6:15 AM 32.0 °F 26.4 °F 28.4 °F 87% 30.33 in 10.0 mi SSE 5.8 mph - N/A   Clear
6:35 AM 32.0 °F 24.2 °F 28.4 °F 87% 30.32 in 10.0 mi SE 9.2 mph - N/A   Clear
6:36 AM 33.8 °F 26.4 °F 28.4 °F 81% 30.32 in 10.0 mi SE 9.2 mph - N/A   Clear
6:55 AM 32.0 °F 24.8 °F 28.4 °F 87% 30.32 in 10.0 mi SE 8.1 mph - N/A   Clear
6:56 AM 32.0 °F 24.2 °F 28.4 °F 87% 30.32 in 10.0 mi SE 9.2 mph - N/A   Clear
7:15 AM 32.0 °F 24.8 °F 26.6 °F 80% 30.32 in 10.0 mi SE 8.1 mph - N/A   Clear
7:16 AM 32.0 °F 24.2 °F 26.6 °F 80% 30.32 in 10.0 mi SE 9.2 mph - N/A   Clear
7:35 AM 33.8 °F 27.7 °F 28.4 °F 81% 30.33 in 10.0 mi SE 6.9 mph - N/A   Clear
7:55 AM 33.8 °F 27.7 °F 28.4 °F 81% 30.32 in 10.0 mi SE 6.9 mph - N/A   Clear
7:56 AM 33.8 °F 27.0 °F 28.4 °F 81% 30.32 in 10.0 mi SE 8.1 mph - N/A   Clear
8:15 AM 33.8 °F 27.0 °F 28.4 °F 81% 30.31 in 10.0 mi SE 8.1 mph - N/A   Clear
8:35 AM 33.8 °F 28.6 °F 28.4 °F 81% 30.32 in 10.0 mi SE 5.8 mph - N/A   Clear
8:55 AM 35.6 °F 29.9 °F 28.4 °F 75% 30.31 in 10.0 mi SE 6.9 mph - N/A   Clear
8:56 AM 35.6 °F 29.9 °F 28.4 °F 75% 30.31 in 10.0 mi SE 6.9 mph - N/A   Clear
9:15 AM 35.6 °F 29.9 °F 28.4 °F 75% 30.30 in 10.0 mi SSE 6.9 mph - N/A   Clear
9:16 AM 35.6 °F 30.7 °F 28.4 °F 75% 30.30 in 10.0 mi SSE 5.8 mph - N/A   Clear
9:35 AM 35.6 °F 31.7 °F 28.4 °F 75% 30.30 in 10.0 mi SSE 4.6 mph - N/A   Clear
9:36 AM 37.4 °F 33.8 °F 28.4 °F 70% 30.30 in 10.0 mi SSE 4.6 mph - N/A   Clear
9:55 AM 37.4 °F 32.8 °F 28.4 °F 70% 30.29 in 10.0 mi SSE 5.8 mph - N/A   Clear
9:56 AM 37.4 °F 33.8 °F 28.4 °F 70% 30.29 in 10.0 mi South 4.6 mph - N/A   Clear
10:15 AM 37.4 °F 34.9 °F 28.4 °F 70% 30.29 in 10.0 mi South 3.5 mph - N/A   Clear
10:16 AM 37.4 °F 33.8 °F 28.4 °F 70% 30.29 in 10.0 mi South 4.6 mph - N/A   Clear
10:35 AM 37.4 °F 32.8 °F 28.4 °F 70% 30.28 in 10.0 mi SSE 5.8 mph - N/A   Clear
10:36 AM 37.4 °F 32.1 °F 28.4 °F 70% 30.28 in 10.0 mi SSE 6.9 mph - N/A   Clear
10:55 AM 37.4 °F 32.8 °F 28.4 °F 70% 30.28 in 10.0 mi South 5.8 mph - N/A   Clear
11:15 AM 37.4 °F 32.1 °F 28.4 °F 70% 30.27 in 10.0 mi South 6.9 mph - N/A   Clear
11:16 AM 37.4 °F 32.1 °F 28.4 °F 70% 30.26 in 10.0 mi South 6.9 mph - N/A   Clear
11:35 AM 41.0 °F 35.2 °F 30.2 °F 65% 30.25 in 10.0 mi SE 9.2 mph - N/A   Clear
11:55 AM 41.0 °F 35.2 °F 30.2 °F 65% 30.24 in 10.0 mi SE 9.2 mph - N/A   Clear
12:15 PM 41.0 °F 36.4 °F 30.2 °F 65% 30.22 in 10.0 mi SSE 6.9 mph - N/A   Clear
12:35 PM 41.0 °F 36.4 °F 30.2 °F 65% 30.21 in 10.0 mi SSE 6.9 mph - N/A   Clear
12:36 PM 41.0 °F 35.8 °F 30.2 °F 65% 30.21 in 10.0 mi SSE 8.1 mph - N/A   Clear
12:55 PM 41.0 °F 37.1 °F 30.2 °F 65% 30.20 in 10.0 mi SSE 5.8 mph - N/A   Clear
1:15 PM 42.8 °F 37.5 °F 32.0 °F 66% 30.19 in 10.0 mi SSE 9.2 mph - N/A   Clear
1:35 PM 42.8 °F 39.3 °F 30.2 °F 61% 30.18 in 10.0 mi South 5.8 mph 16.1 mph N/A   Clear
1:36 PM 42.8 °F 38.6 °F 32.0 °F 66% 30.18 in 10.0 mi SSE 6.9 mph 16.1 mph N/A   Clear
1:55 PM 42.8 °F 38.6 °F 30.2 °F 61% 30.17 in 10.0 mi SSE 6.9 mph - N/A   Clear
1:56 PM 42.8 °F 38.0 °F 30.2 °F 61% 30.17 in 10.0 mi SSE 8.1 mph - N/A   Clear
2:15 PM 41.0 °F 34.3 °F 30.2 °F 65% 30.16 in 10.0 mi SE 11.5 mph 17.3 mph N/A   Clear
2:35 PM 42.8 °F 37.0 °F 30.2 °F 61% 30.15 in 10.0 mi SE 10.4 mph 18.4 mph N/A   Clear
2:36 PM 42.8 °F 37.5 °F 30.2 °F 61% 30.15 in 10.0 mi SE 9.2 mph 18.4 mph N/A   Clear
2:55 PM 42.8 °F 38.6 °F 30.2 °F 61% 30.15 in 10.0 mi South 6.9 mph - N/A   Clear
2:56 PM 42.8 °F 38.6 °F 30.2 °F 61% 30.15 in 10.0 mi SSE 6.9 mph - N/A   Clear
3:15 PM 41.0 °F 35.2 °F 28.4 °F 61% 30.14 in 10.0 mi SSE 9.2 mph - N/A   Clear
3:16 PM 41.0 °F 35.2 °F 28.4 °F 61% 30.14 in 10.0 mi SSE 9.2 mph - N/A   Clear
3:35 PM 41.0 °F 34.3 °F 28.4 °F 61% 30.13 in 10.0 mi SE 11.5 mph - N/A   Clear
3:36 PM 41.0 °F 34.7 °F 28.4 °F 61% 30.13 in 10.0 mi SE 10.4 mph - N/A   Clear
3:55 PM 41.0 °F 34.7 °F 30.2 °F 65% 30.13 in 10.0 mi SE 10.4 mph - N/A   Clear
3:56 PM 41.0 °F 34.7 °F 30.2 °F 65% 30.13 in 10.0 mi SE 10.4 mph - N/A   Clear
4:15 PM 39.2 °F 32.5 °F 30.2 °F 70% 30.12 in 10.0 mi SE 10.4 mph - N/A   Clear
4:16 PM 39.2 °F 32.0 °F 30.2 °F 70% 30.12 in 10.0 mi SE 11.5 mph - N/A   Clear
4:35 PM 39.2 °F 32.5 °F 30.2 °F 70% 30.12 in 10.0 mi SE 10.4 mph - N/A   Clear
4:36 PM 39.2 °F 32.5 °F 30.2 °F 70% 30.12 in 10.0 mi SE 10.4 mph - N/A   Clear
4:55 PM 37.4 °F 30.8 °F 30.2 °F 75% 30.11 in 10.0 mi SE 9.2 mph - N/A   Clear
5:15 PM 37.4 °F 30.8 °F 30.2 °F 75% 30.10 in 10.0 mi SE 9.2 mph 17.3 mph N/A   Clear
5:35 PM 37.4 °F 30.3 °F 30.2 °F 75% 30.10 in 10.0 mi SE 10.4 mph 16.1 mph N/A   Clear
5:36 PM 37.4 °F 30.3 °F 30.2 °F 75% 30.10 in 10.0 mi SSE 10.4 mph 16.1 mph N/A   Clear
5:55 PM 37.4 °F 29.8 °F 28.4 °F 70% 30.11 in 10.0 mi SE 11.5 mph - N/A   Clear
6:15 PM 37.4 °F 32.1 °F 28.4 °F 70% 30.12 in 10.0 mi SSE 6.9 mph - N/A   Clear
6:16 PM 37.4 °F 31.4 °F 28.4 °F 70% 30.12 in 10.0 mi SSE 8.1 mph - N/A   Clear
6:35 PM 35.6 °F 29.9 °F 26.6 °F 70% 30.11 in 10.0 mi SSE 6.9 mph - N/A   Clear
6:55 PM 35.6 °F 28.0 °F 26.6 °F 70% 30.10 in 10.0 mi SE 10.4 mph - N/A   Clear
6:56 PM 35.6 °F 28.6 °F 26.6 °F 70% 30.10 in 10.0 mi SSE 9.2 mph - N/A   Clear
7:15 PM 35.6 °F 29.2 °F 26.6 °F 70% 30.10 in 10.0 mi SSE 8.1 mph - N/A   Clear
7:35 PM 35.6 °F 29.9 °F 26.6 °F 70% 30.09 in 10.0 mi SE 6.9 mph - N/A   Clear
7:55 PM 35.6 °F 29.9 °F 26.6 °F 70% 30.09 in 10.0 mi SSE 6.9 mph - N/A   Clear
8:15 PM 35.6 °F 29.9 °F 28.4 °F 75% 30.09 in 10.0 mi SSE 6.9 mph - N/A   Clear
8:35 PM 35.6 °F 31.7 °F 28.4 °F 75% 30.10 in 10.0 mi SE 4.6 mph - N/A   Clear
8:36 PM 35.6 °F 31.7 °F 28.4 °F 75% 30.09 in 10.0 mi SE 4.6 mph - N/A   Clear
8:55 PM 33.8 °F 28.6 °F 28.4 °F 81% 30.08 in 10.0 mi SSE 5.8 mph - N/A   Clear
9:15 PM 33.8 °F 29.6 °F 28.4 °F 81% 30.09 in 10.0 mi SSE 4.6 mph - N/A   Clear
9:36 PM 35.6 °F - 28.4 °F 75% 30.11 in 10.0 mi Calm Calm - N/A   Clear
9:55 PM 35.6 °F 29.9 °F 30.2 °F 81% 30.10 in 10.0 mi SSE 6.9 mph - N/A   Clear
10:15 PM 35.6 °F 30.7 °F 30.2 °F 81% 30.09 in 10.0 mi SSE 5.8 mph - N/A   Scattered Clouds
10:35 PM 35.6 °F 30.7 °F 30.2 °F 81% 30.08 in 10.0 mi SE 5.8 mph - N/A   Mostly Cloudy
10:36 PM 35.6 °F 31.7 °F 30.2 °F 81% 30.08 in 10.0 mi SE 4.6 mph - N/A   Mostly Cloudy
10:55 PM 35.6 °F 30.7 °F 30.2 °F 81% 30.08 in 10.0 mi SSE 5.8 mph - N/A   Overcast
10:56 PM 35.6 °F 30.7 °F 30.2 °F 81% 30.08 in 10.0 mi SSE 5.8 mph - N/A   Overcast
11:15 PM 35.6 °F 29.9 °F 30.2 °F 81% 30.07 in 10.0 mi SE 6.9 mph - N/A   Overcast
11:35 PM 37.4 °F 32.1 °F 30.2 °F 75% 30.07 in 10.0 mi SSE 6.9 mph - N/A   Scattered Clouds
11:36 PM 37.4 °F 31.4 °F 30.2 °F 75% 30.07 in 10.0 mi SSE 8.1 mph - N/A   Scattered Clouds
11:55 PM 37.4 °F 32.8 °F 30.2 °F 75% 30.06 in 10.0 mi SE 5.8 mph - N/A   Mostly Cloudy
11:56 PM 37.4 °F 32.1 °F 30.2 °F 75% 30.06 in 10.0 mi SSE 6.9 mph - N/A   Mostly Cloudy